Simultaneous Nadir Overpasses (SNOs) Predictions

Prediction of SNOs between GOES-16 and METOP-C Satellite Orbit:

Table of predicted SNOs for the next 14.0 days since TLE Epoch: 6/10/2023
Index Date Time (GOES-16) GOES-16 Lat,Lon METOP-C Lat,Lon Distance(km) Time Diff (sec)
1 06/10/2023 14:40:56 -0.02, -75.19 0.48, -77.30 240.95 80
2 06/11/2023 14:17:36 -0.02, -75.19 -0.64, -72.30 329.11 80
3 06/13/2023 02:39:16 0.02, -75.20 -0.33, -76.91 194.22 80
4 06/14/2023 02:15:54 0.02, -75.21 0.74, -71.90 376.23 80
5 06/15/2023 14:37:24 -0.02, -75.23 0.23, -76.46 139.80 80
6 06/16/2023 14:14:02 -0.02, -75.24 -0.84, -71.45 430.83 80
7 06/18/2023 02:35:41 0.02, -75.25 -0.18, -76.05 91.71 80
8 06/19/2023 02:12:21 0.03, -75.26 0.95, -71.05 479.12 80
9 06/20/2023 14:33:50 -0.03, -75.29 0.02, -75.61 36.23 80
10 06/23/2023 02:29:28 0.04, -75.33 0.06, -75.21 14.10 80
